Terug naar catalogus

COSMOS 2192

ActiefMilitairLEO
NORAD 21981·PAYLOAD·🇷🇺 Russia

Gelanceerd Jun 3, 1992 vanaf Plesetsk Cosmodrome

Loading…

Volgende Passages (komende 24 uur)

TLE

VersSource: Space-Track

Epoch: Sep 14, 2026, 12:29 UTC

1 21981U 92030F   26257.52048711 -.00000023  00000-0 -48103-4 0  9992
2 21981  73.9998 271.1121 0009484 243.1253 190.8396 12.46695531560243

Volg COSMOS 2192 in realtime met AllMySat

Download on the App Store